Time,TemperatureF,DewpointF,PressureIn,WindDirection,WindDirectionDegrees,WindSpeedMPH,WindSpeedGustMPH,Humidity,HourlyPrecipIn,Conditions,Clouds,dailyrainin,SolarRadiationWatts/m^2,SoftwareType,DateUTC
2013-04-23 00:01:00,33.4,31.1,29.99,NNE,18,7.0,7.0,91,0.00,,,0.00,0.00,VWS V14.01,2013-04-23 05:01:00,
2013-04-23 00:06:00,33.3,31.0,29.99,NNE,18,2.0,7.0,91,0.00,,,0.00,0.00,VWS V14.01,2013-04-23 05:06:00,
2013-04-23 00:11:00,33.3,31.0,29.98,NNE,18,1.0,9.0,91,0.00,,,0.00,0.00,VWS V14.01,2013-04-23 05:11:00,
2013-04-23 00:16:00,33.2,30.9,29.98,NNE,18,3.0,9.0,91,0.00,,,0.00,0.00,VWS V14.01,2013-04-23 05:16:00,
2013-04-23 00:21:00,33.2,30.9,29.97,NNE,18,2.0,9.0,91,0.00,,,0.00,0.00,VWS V14.01,2013-04-23 05:21:00,
2013-04-23 00:26:00,33.2,30.9,29.97,NNE,18,4.0,9.0,91,0.00,,,0.00,0.00,VWS V14.01,2013-04-23 05:26:00,
2013-04-23 00:31:00,33.1,30.8,29.96,NNE,18,2.0,6.0,91,0.00,,,0.00,0.00,VWS V14.01,2013-04-23 05:31:00,
2013-04-23 00:36:00,33.1,30.8,29.96,NNE,18,2.0,6.0,91,0.00,,,0.00,0.00,VWS V14.01,2013-04-23 05:36:00,
2013-04-23 00:41:00,33.1,30.8,29.96,NNE,18,6.0,7.0,91,0.00,,,0.00,0.00,VWS V14.01,2013-04-23 05:41:00,
2013-04-23 00:46:00,33.1,30.8,29.96,NNE,18,3.0,7.0,91,0.00,,,0.00,0.00,VWS V14.01,2013-04-23 05:46:00,
2013-04-23 00:51:00,33.1,30.8,29.96,NNE,18,3.0,7.0,91,0.00,,,0.00,0.00,VWS V14.01,2013-04-23 05:51:00,
2013-04-23 00:56:00,33.1,30.8,29.97,NNE,18,3.0,7.0,91,0.00,,,0.00,0.00,VWS V14.01,2013-04-23 05:56:00,
2013-04-23 01:01:00,33.1,30.8,29.96,NNE,18,0.0,5.0,91,0.00,,RA,0.00,0.00,VWS V14.01,2013-04-23 06:01:00,
2013-04-23 01:06:00,33.1,30.8,29.96,NNE,18,3.0,9.0,91,0.00,,RA,0.00,0.00,VWS V14.01,2013-04-23 06:06:00,
2013-04-23 01:11:00,33.1,30.8,29.96,NNE,18,3.0,9.0,91,0.00,,RA,0.00,0.00,VWS V14.01,2013-04-23 06:11:00,
2013-04-23 01:16:00,33.1,30.8,29.96,NNE,18,1.0,9.0,91,0.00,,RA,0.00,0.00,VWS V14.01,2013-04-23 06:16:00,
2013-04-23 01:21:00,33.1,30.8,29.96,NNE,18,5.0,9.0,91,0.00,,,0.00,0.00,VWS V14.01,2013-04-23 06:21:00,
2013-04-23 01:26:00,33.1,30.8,29.96,NNE,18,2.0,9.0,91,0.00,,,0.00,0.00,VWS V14.01,2013-04-23 06:26:00,
2013-04-23 01:31:00,33.1,30.8,29.96,NNE,18,1.0,4.0,91,0.00,,,0.00,0.00,VWS V14.01,2013-04-23 06:31:00,
2013-04-23 01:36:00,33.1,30.8,29.96,NNE,18,3.0,7.0,91,0.00,,,0.00,0.00,VWS V14.01,2013-04-23 06:36:00,
2013-04-23 01:41:00,33.1,30.8,29.96,NNE,18,0.0,7.0,91,0.00,,,0.00,0.00,VWS V14.01,2013-04-23 06:41:00,
2013-04-23 01:46:00,33.1,30.8,29.95,NNE,18,2.0,10.0,91,0.00,,,0.00,0.00,VWS V14.01,2013-04-23 06:46:00,
2013-04-23 01:51:00,33.1,30.8,29.95,NNE,18,8.0,10.0,91,0.00,,,0.00,0.00,VWS V14.01,2013-04-23 06:51:00,
2013-04-23 01:56:00,33.1,30.8,29.95,NNE,18,0.0,10.0,91,0.00,,,0.00,0.00,VWS V14.01,2013-04-23 06:56:00,
2013-04-23 02:01:00,33.1,30.8,29.95,NNE,18,6.0,6.0,91,0.00,,,0.00,0.00,VWS V14.01,2013-04-23 07:01:00,
2013-04-23 02:06:00,33.2,30.9,29.95,NNE,18,3.0,9.0,91,0.00,,,0.00,0.00,VWS V14.01,2013-04-23 07:06:00,
2013-04-23 02:11:00,33.2,30.9,29.95,NNE,18,5.0,9.0,91,0.00,,,0.00,0.00,VWS V14.01,2013-04-23 07:11:00,
2013-04-23 02:16:00,33.2,30.9,29.96,NNE,18,4.0,9.0,91,0.00,,,0.00,0.00,VWS V14.01,2013-04-23 07:16:00,
2013-04-23 02:21:00,33.2,30.9,29.97,NNE,18,8.0,9.0,91,0.00,,OVC011,0.00,0.00,VWS V14.01,2013-04-23 07:21:00,
2013-04-23 02:26:00,33.3,31.0,29.97,NNE,18,2.0,9.0,91,0.00,,OVC011,0.00,0.00,VWS V14.01,2013-04-23 07:26:00,
2013-04-23 02:31:00,33.3,31.0,29.98,NNE,18,5.0,8.0,91,0.00,,OVC011,0.00,0.00,VWS V14.01,2013-04-23 07:31:00,
2013-04-23 02:36:00,33.3,31.0,29.98,NNE,18,2.0,10.0,91,0.00,,OVC011,0.00,0.00,VWS V14.01,2013-04-23 07:36:00,
2013-04-23 02:41:00,33.3,31.0,29.98,NNE,18,5.0,10.0,91,0.00,,OVC011,0.00,0.00,VWS V14.01,2013-04-23 07:41:00,
2013-04-23 02:46:00,33.3,31.0,29.97,NNE,18,5.0,10.0,91,0.00,,OVC011,0.00,0.00,VWS V14.01,2013-04-23 07:46:00,
2013-04-23 02:51:00,33.3,31.0,29.97,NNE,18,2.0,10.0,91,0.00,,OVC011,0.00,0.00,VWS V14.01,2013-04-23 07:51:00,
2013-04-23 02:56:00,33.3,31.0,29.97,NNE,18,5.0,10.0,91,0.00,,OVC011,0.00,0.00,VWS V14.01,2013-04-23 07:56:00,
2013-04-23 03:02:00,33.3,31.0,29.97,NNE,18,2.0,8.0,91,0.00,,OVC013,0.00,0.00,VWS V14.01,2013-04-23 08:02:00,
2013-04-23 03:07:00,33.3,31.0,29.98,NNE,18,2.0,8.0,91,0.00,,OVC013,0.00,0.00,VWS V14.01,2013-04-23 08:07:00,
2013-04-23 03:11:00,33.4,31.1,29.99,NNE,18,2.0,10.0,91,0.00,,OVC013,0.00,0.00,VWS V14.01,2013-04-23 08:11:00,
2013-04-23 03:17:00,33.4,31.1,29.98,NNE,18,3.0,10.0,91,0.00,,OVC013,0.00,0.00,VWS V14.01,2013-04-23 08:17:00,
2013-04-23 03:22:00,33.4,31.1,29.98,NNE,18,3.0,12.0,91,0.00,,OVC015,0.00,0.00,VWS V14.01,2013-04-23 08:22:00,
2013-04-23 03:27:00,33.4,31.1,29.98,NNE,18,7.0,13.0,91,0.00,,OVC015,0.00,0.00,VWS V14.01,2013-04-23 08:27:00,
2013-04-23 03:32:00,33.3,31.0,29.98,NNE,18,2.0,8.0,91,0.00,,OVC015,0.00,0.00,VWS V14.01,2013-04-23 08:32:00,
2013-04-23 03:37:00,33.3,31.0,29.97,NNE,18,4.0,9.0,91,0.00,,OVC015,0.00,0.00,VWS V14.01,2013-04-23 08:37:00,
2013-04-23 03:42:00,33.2,30.9,29.97,NNE,18,3.0,11.0,91,0.00,,OVC015,0.00,0.00,VWS V14.01,2013-04-23 08:42:00,
2013-04-23 03:47:00,33.2,30.9,29.96,NNE,18,3.0,11.0,91,0.00,,OVC015,0.00,0.00,VWS V14.01,2013-04-23 08:47:00,
2013-04-23 03:52:00,33.1,30.8,29.97,NNE,18,4.0,11.0,91,0.00,,OVC015,0.00,0.00,VWS V14.01,2013-04-23 08:52:00,
2013-04-23 03:57:00,33.1,30.8,29.97,NNE,18,5.0,11.0,91,0.00,,OVC015,0.00,0.00,VWS V14.01,2013-04-23 08:57:00,
2013-04-23 04:02:00,33.1,30.8,29.97,NNE,18,4.0,5.0,91,0.00,,,0.00,0.00,VWS V14.01,2013-04-23 09:02:00,
2013-04-23 04:07:00,33.1,30.8,29.97,NNE,18,1.0,9.0,91,0.00,,,0.00,0.00,VWS V14.01,2013-04-23 09:07:00,
2013-04-23 04:12:00,33.0,30.7,29.97,NNE,18,2.0,9.0,91,0.00,,,0.00,0.00,VWS V14.01,2013-04-23 09:12:00,
2013-04-23 04:17:00,33.0,30.7,29.98,NNE,18,0.0,9.0,91,0.00,,,0.00,0.00,VWS V14.01,2013-04-23 09:17:00,
2013-04-23 04:22:00,33.0,30.7,29.97,NNE,18,6.0,9.0,91,0.00,,OVC033,0.00,0.00,VWS V14.01,2013-04-23 09:22:00,
2013-04-23 04:27:00,33.0,30.7,29.97,NNE,18,1.0,9.0,91,0.00,,OVC033,0.00,0.00,VWS V14.01,2013-04-23 09:27:00,
2013-04-23 04:32:00,32.9,30.6,29.96,NNE,18,5.0,5.0,91,0.00,,OVC033,0.00,0.00,VWS V14.01,2013-04-23 09:32:00,
2013-04-23 04:37:00,32.8,30.5,29.96,NNE,18,6.0,9.0,91,0.00,,OVC033,0.00,0.00,VWS V14.01,2013-04-23 09:37:00,
2013-04-23 04:42:00,32.9,30.6,29.97,NNE,18,2.0,11.0,91,0.00,,OVC033,0.00,0.00,VWS V14.01,2013-04-23 09:42:00,
2013-04-23 04:47:00,32.9,30.6,29.97,NNE,18,9.0,11.0,91,0.00,,OVC033,0.00,0.00,VWS V14.01,2013-04-23 09:47:00,
2013-04-23 04:52:00,32.9,30.6,29.98,NNE,18,4.0,11.0,91,0.00,,OVC033,0.00,0.00,VWS V14.01,2013-04-23 09:52:00,
2013-04-23 04:57:00,32.9,30.6,29.98,NNE,18,2.0,11.0,91,0.00,,OVC033,0.00,0.00,VWS V14.01,2013-04-23 09:57:00,
2013-04-23 05:02:00,32.9,30.6,29.98,NNE,18,4.0,12.0,91,0.00,,OVC039,0.00,0.00,VWS V14.01,2013-04-23 10:02:00,
2013-04-23 05:07:00,33.0,30.7,29.99,NNE,18,4.0,12.0,91,0.00,,OVC039,0.00,0.00,VWS V14.01,2013-04-23 10:07:00,
2013-04-23 05:12:00,32.9,30.6,29.98,NNE,18,3.0,12.0,91,0.00,,OVC039,0.00,0.00,VWS V14.01,2013-04-23 10:12:00,
2013-04-23 05:17:00,32.9,30.6,29.98,NNE,18,5.0,12.0,91,0.00,,OVC039,0.00,0.00,VWS V14.01,2013-04-23 10:17:00,
2013-04-23 05:22:00,32.9,30.6,29.98,NNE,18,5.0,12.0,91,0.00,,OVC039,0.00,0.00,VWS V14.01,2013-04-23 10:22:00,
2013-04-23 05:27:00,32.9,30.6,29.99,NNE,18,3.0,12.0,91,0.00,,OVC039,0.00,0.00,VWS V14.01,2013-04-23 10:27:00,
2013-04-23 05:32:00,32.9,30.6,30.00,NNE,18,7.0,7.0,91,0.00,,OVC039,0.00,0.00,VWS V14.01,2013-04-23 10:32:00,
2013-04-23 05:37:00,32.9,30.6,30.00,NNE,18,6.0,9.0,91,0.00,,OVC039,0.00,0.00,VWS V14.01,2013-04-23 10:37:00,
2013-04-23 05:42:00,32.9,30.6,30.00,NNE,18,3.0,9.0,91,0.00,,OVC039,0.00,0.00,VWS V14.01,2013-04-23 10:42:00,
2013-04-23 05:47:00,32.9,30.6,30.00,NNE,18,7.0,10.0,91,0.00,,OVC039,0.00,0.00,VWS V14.01,2013-04-23 10:47:00,
2013-04-23 05:52:00,32.9,30.6,30.00,NNE,18,3.0,11.0,91,0.00,,OVC039,0.00,0.00,VWS V14.01,2013-04-23 10:52:00,
2013-04-23 05:57:00,32.9,30.6,30.00,NNE,18,2.0,11.0,91,0.00,,OVC039,0.00,0.00,VWS V14.01,2013-04-23 10:57:00,
2013-04-23 06:02:00,32.8,30.5,30.00,NNE,18,5.0,7.0,91,0.00,,OVC050,0.00,0.00,VWS V14.01,2013-04-23 11:02:00,
2013-04-23 06:07:00,32.7,30.4,30.00,NNE,18,5.0,8.0,91,0.00,,OVC050,0.00,0.00,VWS V14.01,2013-04-23 11:07:00,
2013-04-23 06:12:00,32.8,30.5,30.01,NNE,18,6.0,9.0,91,0.00,,OVC050,0.00,0.00,VWS V14.01,2013-04-23 11:12:00,
2013-04-23 06:17:00,32.7,30.4,30.01,NNE,18,2.0,9.0,91,0.00,,OVC050,0.00,5.00,VWS V14.01,2013-04-23 11:17:00,
2013-04-23 06:22:00,32.6,30.3,30.00,NNE,18,3.0,9.0,91,0.00,,OVC050,0.00,7.00,VWS V14.01,2013-04-23 11:22:00,
2013-04-23 06:27:00,32.6,30.3,30.01,NNE,18,3.0,9.0,91,0.00,,OVC050,0.00,11.00,VWS V14.01,2013-04-23 11:27:00,
2013-04-23 06:32:00,32.7,30.4,30.01,NNE,18,3.0,10.0,91,0.00,,OVC050,0.00,18.00,VWS V14.01,2013-04-23 11:32:00,
2013-04-23 06:37:00,32.8,30.5,30.01,NNE,18,4.0,10.0,91,0.00,,OVC050,0.00,26.00,VWS V14.01,2013-04-23 11:37:00,
2013-04-23 06:42:00,32.8,30.5,30.01,NNE,18,3.0,10.0,91,0.00,,OVC050,0.00,25.00,VWS V14.01,2013-04-23 11:42:00,
2013-04-23 06:47:00,32.8,30.5,30.02,NNE,18,5.0,10.0,91,0.00,,OVC050,0.00,28.00,VWS V14.01,2013-04-23 11:47:00,
2013-04-23 06:52:00,32.8,30.5,30.02,NNE,18,5.0,10.0,91,0.00,,OVC050,0.00,32.00,VWS V14.01,2013-04-23 11:52:00,
2013-04-23 06:57:00,32.9,30.6,30.03,NNE,18,3.0,10.0,91,0.00,,OVC050,0.00,32.00,VWS V14.01,2013-04-23 11:57:00,
2013-04-23 07:02:00,32.8,30.5,30.02,NNE,18,0.0,5.0,91,0.00,,OVC025,0.00,33.00,VWS V14.01,2013-04-23 12:02:00,
2013-04-23 07:07:00,32.8,30.5,30.02,NNE,18,2.0,6.0,91,0.00,,OVC025,0.00,42.00,VWS V14.01,2013-04-23 12:07:00,
2013-04-23 07:12:00,32.8,30.2,30.02,NNE,18,2.0,7.0,90,0.00,,OVC025,0.00,53.00,VWS V14.01,2013-04-23 12:12:00,
2013-04-23 07:17:00,32.9,30.3,30.03,NNE,18,2.0,7.0,90,0.00,,OVC025,0.00,54.00,VWS V14.01,2013-04-23 12:17:00,
2013-04-23 07:22:00,33.0,30.4,30.03,NNE,18,7.0,10.0,90,0.00,,OVC025,0.00,74.00,VWS V14.01,2013-04-23 12:22:00,
2013-04-23 07:27:00,33.0,30.4,30.04,NNE,18,4.0,10.0,90,0.00,,OVC025,0.00,81.00,VWS V14.01,2013-04-23 12:27:00,
2013-04-23 07:32:00,33.0,30.4,30.04,NNE,18,7.0,12.0,90,0.00,,OVC025,0.00,76.00,VWS V14.01,2013-04-23 12:32:00,
2013-04-23 07:37:00,32.9,30.3,30.04,NNE,18,3.0,12.0,90,0.00,,OVC025,0.00,40.00,VWS V14.01,2013-04-23 12:37:00,
2013-04-23 07:42:00,32.9,30.3,30.04,NNE,18,2.0,12.0,90,0.00,,OVC025,0.00,46.00,VWS V14.01,2013-04-23 12:42:00,
2013-04-23 07:47:00,33.0,30.4,30.04,NNE,18,3.0,12.0,90,0.00,,OVC025,0.00,113.00,VWS V14.01,2013-04-23 12:47:00,
2013-04-23 07:52:00,33.1,30.5,30.04,NNE,18,5.0,12.0,90,0.00,,OVC025,0.00,160.00,VWS V14.01,2013-04-23 12:52:00,
2013-04-23 07:57:00,33.3,30.7,30.05,NNE,17,3.0,12.0,90,0.00,,OVC025,0.00,139.00,VWS V14.01,2013-04-23 12:57:00,
2013-04-23 08:02:00,33.4,30.8,30.04,North,360,6.0,10.0,90,0.00,,OVC055,0.00,130.00,VWS V14.01,2013-04-23 13:02:00,
2013-04-23 08:07:00,33.6,31.0,30.04,North,360,3.0,10.0,90,0.00,,OVC055,0.00,163.00,VWS V14.01,2013-04-23 13:07:00,
2013-04-23 08:12:00,33.6,30.7,30.03,North,355,2.0,10.0,89,0.00,,OVC055,0.00,84.00,VWS V14.01,2013-04-23 13:12:00,
2013-04-23 08:17:00,33.6,31.0,30.03,NNW,347,3.0,10.0,90,0.00,,OVC055,0.00,91.00,VWS V14.01,2013-04-23 13:17:00,
2013-04-23 08:22:00,33.6,31.0,30.03,NNW,331,3.0,10.0,90,0.00,,OVC055,0.00,128.00,VWS V14.01,2013-04-23 13:22:00,
2013-04-23 08:27:00,33.8,31.2,30.03,WNW,301,6.0,10.0,90,0.00,,OVC055,0.00,192.00,VWS V14.01,2013-04-23 13:27:00,
2013-04-23 08:32:00,33.9,31.3,30.03,NNW,336,3.0,4.0,90,0.00,,OVC055,0.00,77.00,VWS V14.01,2013-04-23 13:32:00,
2013-04-23 08:37:00,33.9,31.3,30.04,NW,309,3.0,9.0,90,0.00,,OVC055,0.00,155.00,VWS V14.01,2013-04-23 13:37:00,
2013-04-23 08:42:00,34.0,31.4,30.04,North,5,5.0,9.0,90,0.00,,OVC055,0.00,185.00,VWS V14.01,2013-04-23 13:42:00,
2013-04-23 08:47:00,34.1,31.2,30.04,NW,307,3.0,9.0,89,0.00,,OVC055,0.00,200.00,VWS V14.01,2013-04-23 13:47:00,
2013-04-23 08:52:00,34.2,31.3,30.04,NW,321,3.0,9.0,89,0.00,,OVC055,0.00,211.00,VWS V14.01,2013-04-23 13:52:00,
2013-04-23 08:57:00,34.3,31.4,30.04,NNW,327,8.0,10.0,89,0.00,,OVC055,0.00,241.00,VWS V14.01,2013-04-23 13:57:00,
2013-04-23 09:02:00,34.5,31.6,30.03,NW,326,3.0,10.0,89,0.00,,SCT023,0.00,255.00,VWS V14.01,2013-04-23 14:02:00,
2013-04-23 09:07:00,34.4,31.2,30.04,NNW,328,7.0,13.0,88,0.00,,SCT023,0.00,206.00,VWS V14.01,2013-04-23 14:07:00,
2013-04-23 09:12:00,34.4,31.2,30.04,North,5,4.0,13.0,88,0.00,,SCT023,0.00,230.00,VWS V14.01,2013-04-23 14:12:00,
2013-04-23 09:17:00,34.7,31.2,30.04,NNW,347,4.0,13.0,87,0.00,,SCT023,0.00,279.00,VWS V14.01,2013-04-23 14:17:00,
2013-04-23 09:22:00,35.0,31.5,30.04,North,11,6.0,13.0,87,0.00,,BKN025,0.00,185.00,VWS V14.01,2013-04-23 14:22:00,
2013-04-23 09:27:00,35.0,31.5,30.05,NNW,334,3.0,13.0,87,0.00,,BKN025,0.00,172.00,VWS V14.01,2013-04-23 14:27:00,
2013-04-23 09:32:00,35.1,31.3,30.05,NW,325,2.0,11.0,86,0.00,,BKN025,0.00,200.00,VWS V14.01,2013-04-23 14:32:00,
2013-04-23 09:37:00,35.1,31.3,30.04,NW,316,8.0,11.0,86,0.01,,BKN025,0.01,225.00,VWS V14.01,2013-04-23 14:37:00,
2013-04-23 09:42:00,35.0,31.2,30.05,WNW,301,8.0,11.0,86,0.01,,BKN025,0.01,207.00,VWS V14.01,2013-04-23 14:42:00,
2013-04-23 09:47:00,35.1,31.3,30.05,NNW,337,3.0,11.0,86,0.01,,BKN025,0.01,278.00,VWS V14.01,2013-04-23 14:47:00,
2013-04-23 09:52:00,35.6,32.1,30.05,NW,313,4.0,11.0,87,0.02,,BKN025,0.02,425.00,VWS V14.01,2013-04-23 14:52:00,
2013-04-23 09:57:00,35.6,31.0,30.05,NW,309,3.0,16.0,83,0.03,,BKN025,0.03,271.00,VWS V14.01,2013-04-23 14:57:00,
2013-04-23 10:02:00,35.5,31.1,30.05,NW,313,6.0,11.0,84,0.03,,OVC019,0.03,155.00,VWS V14.01,2013-04-23 15:02:00,
2013-04-23 10:07:00,35.3,31.0,30.05,North,5,3.0,12.0,84,0.03,,OVC019,0.03,176.00,VWS V14.01,2013-04-23 15:07:00,
2013-04-23 10:12:00,35.1,30.8,30.06,NNW,342,3.0,12.0,84,0.04,,OVC019,0.04,195.00,VWS V14.01,2013-04-23 15:12:00,
2013-04-23 10:17:00,35.0,30.7,30.06,NW,308,7.0,12.0,84,0.04,,OVC019,0.04,244.00,VWS V14.01,2013-04-23 15:17:00,
2013-04-23 10:22:00,35.1,30.8,30.06,NNW,332,5.0,12.0,84,0.04,,OVC019,0.04,257.00,VWS V14.01,2013-04-23 15:22:00,
2013-04-23 10:27:00,35.2,30.3,30.06,NW,323,9.0,15.0,82,0.05,,OVC019,0.05,299.00,VWS V14.01,2013-04-23 15:27:00,
2013-04-23 10:32:00,35.2,30.3,30.06,NW,318,13.0,18.0,82,0.05,,OVC019,0.05,306.00,VWS V14.01,2013-04-23 15:32:00,
2013-04-23 10:37:00,35.4,30.5,30.06,NNW,346,3.0,18.0,82,0.05,,OVC019,0.05,336.00,VWS V14.01,2013-04-23 15:37:00,
2013-04-23 10:43:00,35.9,31.0,30.06,NNW,343,4.0,18.0,82,0.06,,OVC019,0.06,499.00,VWS V14.01,2013-04-23 15:43:00,
2013-04-23 10:47:00,36.4,30.8,30.05,NNE,15,9.0,18.0,80,0.07,,OVC019,0.07,380.00,VWS V14.01,2013-04-23 15:47:00,
2013-04-23 10:52:00,37.0,31.4,30.05,NNW,327,5.0,18.0,80,0.07,,OVC019,0.07,932.00,VWS V14.01,2013-04-23 15:52:00,
2013-04-23 10:57:00,37.4,30.5,30.04,North,351,7.0,18.0,76,0.08,,OVC019,0.08,584.00,VWS V14.01,2013-04-23 15:57:00,
2013-04-23 11:02:00,37.1,30.6,30.04,NNE,26,8.0,11.0,77,0.06,,BKN030,0.09,390.00,VWS V14.01,2013-04-23 16:02:00,
2013-04-23 11:07:00,37.2,30.4,30.04,NNW,338,7.0,13.0,76,0.06,,BKN030,0.09,652.00,VWS V14.01,2013-04-23 16:07:00,
2013-04-23 11:13:00,37.3,30.4,30.04,NNW,327,3.0,13.0,76,0.07,,BKN030,0.10,517.00,VWS V14.01,2013-04-23 16:13:00,
2013-04-23 11:18:00,37.4,30.9,30.04,NW,322,2.0,13.0,77,0.08,,BKN030,0.11,476.00,VWS V14.01,2013-04-23 16:18:00,
2013-04-23 11:23:00,37.7,31.1,30.04,NW,318,2.0,13.0,77,0.08,,BKN030,0.11,446.00,VWS V14.01,2013-04-23 16:23:00,
2013-04-23 11:28:00,38.1,31.5,30.04,NW,321,6.0,13.0,77,0.09,,BKN030,0.12,446.00,VWS V14.01,2013-04-23 16:28:00,
2013-04-23 11:33:00,37.6,30.7,30.04,NW,325,4.0,11.0,76,0.08,,BKN030,0.13,297.00,VWS V14.01,2013-04-23 16:33:00,
2013-04-23 11:38:00,36.9,30.0,30.04,NNW,340,6.0,14.0,76,0.09,,BKN030,0.14,302.00,VWS V14.01,2013-04-23 16:38:00,
2013-04-23 11:43:00,36.9,30.0,30.04,North,10,3.0,16.0,76,0.09,,BKN026,0.14,468.00,VWS V14.01,2013-04-23 16:43:00,
2013-04-23 11:48:00,37.3,29.8,30.04,North,349,1.0,16.0,74,0.09,,BKN026,0.14,415.00,VWS V14.01,2013-04-23 16:48:00,
2013-04-23 11:53:00,37.5,30.0,30.03,North,5,5.0,16.0,74,0.10,,BKN026,0.15,378.00,VWS V14.01,2013-04-23 16:53:00,
2013-04-23 11:58:00,38.2,30.0,30.04,North,5,10.0,16.0,72,0.10,,BKN026,0.15,1225.00,VWS V14.01,2013-04-23 16:58:00,
2013-04-23 12:03:00,38.9,30.0,30.04,NW,321,9.0,12.0,70,0.08,,BKN024,0.16,1287.00,VWS V14.01,2013-04-23 17:03:00,
2013-04-23 12:08:00,38.9,29.6,30.04,NNE,13,3.0,12.0,69,0.09,,BKN024,0.17,404.00,VWS V14.01,2013-04-23 17:08:00,
2013-04-23 12:13:00,38.8,29.9,30.05,NNW,339,6.0,12.0,70,0.09,,BKN024,0.17,550.00,VWS V14.01,2013-04-23 17:13:00,
2013-04-23 12:18:00,38.8,30.2,30.04,NW,307,6.0,12.0,71,0.09,,BKN024,0.17,357.00,VWS V14.01,2013-04-23 17:18:00,
2013-04-23 12:23:00,38.4,29.8,30.04,North,349,4.0,12.0,71,0.10,,BKN024,0.18,341.00,VWS V14.01,2013-04-23 17:23:00,
2013-04-23 12:28:00,37.7,29.5,30.04,WNW,298,8.0,13.0,72,0.10,,BKN024,0.18,290.00,VWS V14.01,2013-04-23 17:28:00,
2013-04-23 12:33:00,37.8,29.6,30.03,WNW,299,4.0,7.0,72,0.05,,BKN024,0.18,476.00,VWS V14.01,2013-04-23 17:33:00,
2013-04-23 12:38:00,38.2,29.6,30.03,North,355,3.0,7.0,71,0.05,,BKN024,0.18,369.00,VWS V14.01,2013-04-23 17:38:00,
2013-04-23 12:43:00,38.2,29.3,30.03,North,360,3.0,10.0,70,0.06,,BKN024,0.19,253.00,VWS V14.01,2013-04-23 17:43:00,
2013-04-23 12:48:00,38.2,30.3,30.03,NW,313,6.0,10.0,73,0.06,,BKN024,0.19,424.00,VWS V14.01,2013-04-23 17:48:00,
2013-04-23 12:53:00,38.1,29.5,30.03,NNW,335,3.0,12.0,71,0.06,,BKN024,0.19,292.00,VWS V14.01,2013-04-23 17:53:00,
2013-04-23 12:58:00,37.9,29.4,30.03,North,349,5.0,12.0,71,0.06,,BKN024,0.19,332.00,VWS V14.01,2013-04-23 17:58:00,
2013-04-23 13:03:00,38.0,29.1,30.03,North,9,4.0,12.0,70,0.04,,OVC028,0.19,297.00,VWS V14.01,2013-04-23 18:03:00,
2013-04-23 13:08:00,38.0,29.5,30.03,NNW,340,5.0,12.0,71,0.04,,OVC028,0.19,290.00,VWS V14.01,2013-04-23 18:08:00,
2013-04-23 13:13:00,38.1,29.5,30.03,NNW,348,3.0,12.0,71,0.05,,OVC028,0.20,290.00,VWS V14.01,2013-04-23 18:13:00,
2013-04-23 13:18:00,38.2,28.9,30.03,WNW,302,7.0,12.0,69,0.05,,OVC028,0.20,279.00,VWS V14.01,2013-04-23 18:18:00,
2013-04-23 13:23:00,38.3,29.4,30.03,NW,326,1.0,12.0,70,0.05,,OVC028,0.20,357.00,VWS V14.01,2013-04-23 18:23:00,
2013-04-23 13:28:00,38.3,29.0,30.03,NW,317,5.0,12.0,69,0.05,,OVC028,0.20,329.00,VWS V14.01,2013-04-23 18:28:00,
2013-04-23 13:33:00,38.2,29.6,30.03,WNW,300,6.0,9.0,71,0.02,,OVC028,0.20,276.00,VWS V14.01,2013-04-23 18:33:00,
2013-04-23 13:38:00,38.0,29.1,30.03,NW,313,7.0,14.0,70,0.02,,OVC028,0.20,297.00,VWS V14.01,2013-04-23 18:38:00,
2013-04-23 13:43:00,38.0,29.5,30.03,WNW,286,6.0,14.0,71,0.02,,OVC031,0.20,346.00,VWS V14.01,2013-04-23 18:43:00,
2013-04-23 13:48:00,38.2,30.0,30.03,NW,315,15.0,15.0,72,0.03,,OVC031,0.21,301.00,VWS V14.01,2013-04-23 18:48:00,
2013-04-23 13:53:00,38.2,29.3,30.03,NW,319,7.0,16.0,70,0.03,,OVC031,0.21,265.00,VWS V14.01,2013-04-23 18:53:00,
2013-04-23 13:58:00,38.0,29.1,30.03,NNW,329,8.0,16.0,70,0.03,,OVC031,0.21,311.00,VWS V14.01,2013-04-23 18:58:00,
2013-04-23 14:03:00,38.2,29.3,30.03,NW,320,9.0,14.0,70,0.02,,OVC031,0.21,374.00,VWS V14.01,2013-04-23 19:03:00,
2013-04-23 14:08:00,38.3,29.0,30.04,NW,322,3.0,14.0,69,0.02,,OVC031,0.21,330.00,VWS V14.01,2013-04-23 19:08:00,
2013-04-23 14:13:00,38.3,28.3,30.04,NNW,337,4.0,14.0,67,0.02,,OVC031,0.21,283.00,VWS V14.01,2013-04-23 19:13:00,
2013-04-23 14:18:00,38.4,28.4,30.03,NW,306,5.0,14.0,67,0.02,,OVC031,0.21,380.00,VWS V14.01,2013-04-23 19:18:00,
2013-04-23 14:23:00,38.6,28.6,30.03,NW,321,1.0,14.0,67,0.02,,OVC031,0.21,396.00,VWS V14.01,2013-04-23 19:23:00,
2013-04-23 14:28:00,38.7,29.1,30.04,NW,304,7.0,14.0,68,0.02,,OVC031,0.21,459.00,VWS V14.01,2013-04-23 19:28:00,
2013-04-23 14:33:00,38.8,28.4,30.03,NW,311,5.0,13.0,66,0.01,,OVC031,0.21,461.00,VWS V14.01,2013-04-23 19:33:00,
2013-04-23 14:38:00,38.7,28.3,30.03,NW,307,5.0,13.0,66,0.01,,OVC031,0.21,431.00,VWS V14.01,2013-04-23 19:38:00,
2013-04-23 14:43:00,38.9,28.5,30.03,NW,307,10.0,13.0,66,0.01,,OVC031,0.21,359.00,VWS V14.01,2013-04-23 19:43:00,
2013-04-23 14:48:00,39.0,27.9,30.02,North,5,3.0,13.0,64,0.01,,OVC031,0.21,406.00,VWS V14.01,2013-04-23 19:48:00,
2013-04-23 14:53:00,39.2,27.7,30.02,West,279,10.0,13.0,63,0.01,,OVC031,0.21,418.00,VWS V14.01,2013-04-23 19:53:00,
2013-04-23 14:58:00,39.3,27.8,30.02,NW,319,11.0,15.0,63,0.01,,OVC031,0.21,443.00,VWS V14.01,2013-04-23 19:58:00,
2013-04-23 15:03:00,39.4,27.9,30.02,NNW,336,9.0,13.0,63,0.00,,OVC039,0.21,397.00,VWS V14.01,2013-04-23 20:03:00,
2013-04-23 15:08:00,40.1,27.8,30.02,WNW,302,11.0,13.0,61,0.00,,OVC039,0.21,1114.00,VWS V14.01,2013-04-23 20:08:00,
2013-04-23 15:13:00,40.5,28.5,30.02,NNW,340,10.0,13.0,62,0.00,,OVC039,0.21,635.00,VWS V14.01,2013-04-23 20:13:00,
2013-04-23 15:18:00,40.4,26.8,30.02,WNW,292,9.0,20.0,58,0.00,,OVC039,0.21,548.00,VWS V14.01,2013-04-23 20:18:00,
2013-04-23 15:23:00,40.1,27.8,30.02,North,5,7.0,20.0,61,0.00,,OVC039,0.21,554.00,VWS V14.01,2013-04-23 20:23:00,
2013-04-23 15:28:00,40.5,27.3,30.02,NNE,13,7.0,20.0,59,0.00,,OVC039,0.21,478.00,VWS V14.01,2013-04-23 20:28:00,
2013-04-23 15:33:00,40.6,27.4,30.02,North,5,9.0,9.0,59,0.00,,OVC039,0.21,385.00,VWS V14.01,2013-04-23 20:33:00,
2013-04-23 15:38:00,41.3,27.2,30.02,North,5,3.0,9.0,57,0.00,,OVC039,0.21,830.00,VWS V14.01,2013-04-23 20:38:00,
2013-04-23 15:43:00,41.9,28.2,30.02,NNE,25,5.0,14.0,58,0.00,,OVC039,0.21,800.00,VWS V14.01,2013-04-23 20:43:00,
2013-04-23 15:48:00,42.1,27.1,30.01,NW,316,7.0,14.0,55,0.00,,OVC039,0.21,838.00,VWS V14.01,2013-04-23 20:48:00,
2013-04-23 15:53:00,41.4,26.5,30.01,WNW,300,6.0,16.0,55,0.00,,OVC039,0.21,823.00,VWS V14.01,2013-04-23 20:53:00,
2013-04-23 15:58:00,41.7,26.7,30.01,NNW,333,7.0,16.0,55,0.00,,OVC039,0.21,831.00,VWS V14.01,2013-04-23 20:58:00,
2013-04-23 16:03:00,41.2,25.8,30.02,WNW,298,10.0,14.0,54,0.00,,BKN045,0.21,334.00,VWS V14.01,2013-04-23 21:03:00,
2013-04-23 16:08:00,41.1,26.6,30.01,North,360,4.0,14.0,56,0.00,,BKN045,0.21,357.00,VWS V14.01,2013-04-23 21:08:00,
2013-04-23 16:13:00,41.3,27.2,30.02,NW,321,7.0,14.0,57,0.00,,BKN045,0.21,726.00,VWS V14.01,2013-04-23 21:13:00,
2013-04-23 16:18:00,41.6,26.6,30.01,WNW,292,14.0,14.0,55,0.00,,BKN045,0.21,183.00,VWS V14.01,2013-04-23 21:18:00,
2013-04-23 16:23:00,41.1,25.7,30.01,NW,325,10.0,15.0,54,0.00,,BKN045,0.21,519.00,VWS V14.01,2013-04-23 21:23:00,
2013-04-23 16:28:00,41.4,26.9,30.01,NW,310,4.0,15.0,56,0.00,,BKN045,0.21,573.00,VWS V14.01,2013-04-23 21:28:00,
2013-04-23 16:33:00,41.6,27.1,30.01,WNW,296,12.0,17.0,56,0.00,,BKN045,0.21,643.00,VWS V14.01,2013-04-23 21:33:00,
2013-04-23 16:38:00,41.7,26.7,30.01,NNW,329,7.0,17.0,55,0.00,,BKN045,0.21,601.00,VWS V14.01,2013-04-23 21:38:00,
2013-04-23 16:43:00,42.0,26.6,30.01,WNW,292,10.0,17.0,54,0.00,,BKN045,0.21,629.00,VWS V14.01,2013-04-23 21:43:00,
2013-04-23 16:48:00,41.5,26.5,30.01,NW,317,4.0,17.0,55,0.00,,BKN045,0.21,578.00,VWS V14.01,2013-04-23 21:48:00,
2013-04-23 16:53:00,42.0,27.0,30.01,NNW,340,4.0,17.0,55,0.00,,BKN045,0.21,550.00,VWS V14.01,2013-04-23 21:53:00,
2013-04-23 16:58:00,42.3,26.9,30.01,NW,324,4.0,17.0,54,0.00,,BKN045,0.21,643.00,VWS V14.01,2013-04-23 21:58:00,
2013-04-23 17:03:00,41.6,25.8,30.01,WNW,287,9.0,15.0,53,0.00,,BKN045,0.21,373.00,VWS V14.01,2013-04-23 22:03:00,
2013-04-23 17:09:00,41.2,25.8,30.01,WNW,300,3.0,15.0,54,0.00,,BKN045,0.21,587.00,VWS V14.01,2013-04-23 22:09:00,
2013-04-23 17:14:00,41.3,25.5,30.01,NW,315,11.0,16.0,53,0.00,,BKN045,0.21,552.00,VWS V14.01,2013-04-23 22:14:00,
2013-04-23 17:19:00,41.2,25.8,30.01,NW,319,7.0,16.0,54,0.00,,BKN045,0.21,515.00,VWS V14.01,2013-04-23 22:19:00,
2013-04-23 17:24:00,41.6,26.2,30.01,WNW,295,9.0,16.0,54,0.00,,BKN045,0.21,499.00,VWS V14.01,2013-04-23 22:24:00,
2013-04-23 17:29:00,41.8,25.9,30.00,NW,318,4.0,16.0,53,0.00,,BKN045,0.21,468.00,VWS V14.01,2013-04-23 22:29:00,
2013-04-23 17:34:00,42.2,25.9,30.01,WNW,301,10.0,14.0,52,0.00,,BKN045,0.21,457.00,VWS V14.01,2013-04-23 22:34:00,
2013-04-23 17:39:00,41.9,24.1,30.01,NW,313,6.0,15.0,49,0.00,,BKN045,0.21,462.00,VWS V14.01,2013-04-23 22:39:00,
2013-04-23 17:44:00,41.9,25.1,30.00,NNW,344,4.0,15.0,51,0.00,,BKN045,0.21,397.00,VWS V14.01,2013-04-23 22:44:00,
2013-04-23 17:49:00,42.2,24.9,30.00,NW,321,6.0,15.0,50,0.00,,BKN045,0.21,292.00,VWS V14.01,2013-04-23 22:49:00,
2013-04-23 17:54:00,42.2,24.9,30.00,WNW,302,11.0,15.0,50,0.00,,BKN045,0.21,290.00,VWS V14.01,2013-04-23 22:54:00,
2013-04-23 17:59:00,42.0,25.7,30.00,NNW,347,8.0,15.0,52,0.00,,BKN045,0.21,390.00,VWS V14.01,2013-04-23 22:59:00,
2013-04-23 18:04:00,42.1,25.3,30.00,NW,311,6.0,10.0,51,0.00,,SCT047,0.21,371.00,VWS V14.01,2013-04-23 23:04:00,
2013-04-23 18:09:00,42.2,26.3,30.00,West,271,7.0,11.0,53,0.00,,SCT047,0.21,350.00,VWS V14.01,2013-04-23 23:09:00,
2013-04-23 18:14:00,41.8,25.0,30.00,WNW,283,10.0,13.0,51,0.00,,SCT047,0.21,315.00,VWS V14.01,2013-04-23 23:14:00,
2013-04-23 18:19:00,41.5,25.2,30.00,NNW,331,4.0,13.0,52,0.00,,SCT047,0.21,278.00,VWS V14.01,2013-04-23 23:19:00,
2013-04-23 18:24:00,41.8,24.5,30.00,WNW,298,9.0,13.0,50,0.00,,SCT047,0.21,274.00,VWS V14.01,2013-04-23 23:24:00,
2013-04-23 18:29:00,41.6,24.8,30.01,NW,306,9.0,14.0,51,0.00,,SCT047,0.21,257.00,VWS V14.01,2013-04-23 23:29:00,
2013-04-23 18:34:00,41.4,25.1,30.01,WNW,296,4.0,12.0,52,0.00,,SCT047,0.21,241.00,VWS V14.01,2013-04-23 23:34:00,
2013-04-23 18:39:00,41.4,25.6,30.00,West,277,13.0,13.0,53,0.00,,SCT047,0.21,220.00,VWS V14.01,2013-04-23 23:39:00,
2013-04-23 18:44:00,41.3,25.5,30.00,NW,306,8.0,13.0,53,0.00,,SCT047,0.21,200.00,VWS V14.01,2013-04-23 23:44:00,
2013-04-23 18:49:00,41.3,24.5,30.00,NW,315,7.0,13.0,51,0.00,,SCT047,0.21,185.00,VWS V14.01,2013-04-23 23:49:00,
2013-04-23 18:54:00,41.3,24.1,30.00,NNW,340,5.0,13.0,50,0.00,,SCT047,0.21,169.00,VWS V14.01,2013-04-23 23:54:00,
2013-04-23 18:59:00,41.3,23.6,30.00,WNW,292,8.0,13.0,49,0.00,,SCT047,0.21,155.00,VWS V14.01,2013-04-23 23:59:00,
2013-04-23 19:04:00,41.3,24.5,30.00,NW,323,5.0,9.0,51,0.00,,SCT049,0.21,139.00,VWS V14.01,2013-04-24 00:04:00,
2013-04-23 19:09:00,41.0,23.8,29.99,WNW,302,7.0,11.0,50,0.00,,SCT049,0.21,125.00,VWS V14.01,2013-04-24 00:09:00,
2013-04-23 19:14:00,40.8,24.5,29.99,WNW,294,5.0,11.0,52,0.00,,SCT049,0.21,111.00,VWS V14.01,2013-04-24 00:14:00,
2013-04-23 19:19:00,40.7,24.9,30.00,NW,319,4.0,11.0,53,0.00,,SCT049,0.21,93.00,VWS V14.01,2013-04-24 00:19:00,
2013-04-23 19:24:00,40.6,25.3,30.00,NW,311,4.0,11.0,54,0.00,,SCT049,0.21,79.00,VWS V14.01,2013-04-24 00:24:00,
2013-04-23 19:29:00,40.5,24.7,30.00,NW,311,3.0,11.0,53,0.00,,SCT049,0.21,63.00,VWS V14.01,2013-04-24 00:29:00,
2013-04-23 19:34:00,40.3,24.5,30.00,WNW,294,4.0,7.0,53,0.00,,SCT049,0.21,51.00,VWS V14.01,2013-04-24 00:34:00,
2013-04-23 19:39:00,40.1,25.2,30.00,WNW,296,2.0,7.0,55,0.00,,SCT049,0.21,39.00,VWS V14.01,2013-04-24 00:39:00,
2013-04-23 19:44:00,39.9,25.5,30.00,WNW,286,1.0,7.0,56,0.00,,SCT049,0.21,28.00,VWS V14.01,2013-04-24 00:44:00,
2013-04-23 19:49:00,39.7,25.3,30.00,WNW,296,2.0,7.0,56,0.00,,SCT049,0.21,21.00,VWS V14.01,2013-04-24 00:49:00,
2013-04-23 19:54:00,39.4,25.5,30.00,WNW,297,3.0,7.0,57,0.00,,SCT049,0.21,12.00,VWS V14.01,2013-04-24 00:54:00,
2013-04-23 19:59:00,39.0,25.5,30.00,West,265,2.0,7.0,58,0.00,,SCT049,0.21,5.00,VWS V14.01,2013-04-24 00:59:00,
2013-04-23 20:04:00,38.7,25.6,30.00,WNW,289,2.0,4.0,59,0.00,,CLR,0.21,0.00,VWS V14.01,2013-04-24 01:04:00,
2013-04-23 20:09:00,38.4,25.7,30.00,WNW,289,0.0,4.0,60,0.00,,CLR,0.21,0.00,VWS V14.01,2013-04-24 01:09:00,
2013-04-23 20:14:00,38.1,25.5,30.00,WNW,289,2.0,4.0,60,0.00,,CLR,0.21,0.00,VWS V14.01,2013-04-24 01:14:00,
2013-04-23 20:19:00,38.0,25.4,30.00,WNW,289,0.0,4.0,60,0.00,,CLR,0.21,0.00,VWS V14.01,2013-04-24 01:19:00,
2013-04-23 20:24:00,37.8,25.2,30.01,WNW,289,0.0,4.0,60,0.00,,CLR,0.21,0.00,VWS V14.01,2013-04-24 01:24:00,
2013-04-23 20:29:00,37.6,25.0,30.01,WNW,289,1.0,4.0,60,0.00,,CLR,0.21,0.00,VWS V14.01,2013-04-24 01:29:00,
2013-04-23 20:34:00,37.3,25.1,30.01,WNW,289,2.0,2.0,61,0.00,,CLR,0.21,0.00,VWS V14.01,2013-04-24 01:34:00,
2013-04-23 20:39:00,37.1,24.9,30.01,WNW,289,1.0,2.0,61,0.00,,CLR,0.21,0.00,VWS V14.01,2013-04-24 01:39:00,
2013-04-23 20:44:00,37.0,24.8,30.01,WNW,289,1.0,2.0,61,0.00,,CLR,0.21,0.00,VWS V14.01,2013-04-24 01:44:00,
2013-04-23 20:49:00,36.8,25.0,30.01,WNW,289,0.0,2.0,62,0.00,,CLR,0.21,0.00,VWS V14.01,2013-04-24 01:49:00,
2013-04-23 20:54:00,36.4,25.0,30.02,WNW,289,2.0,2.0,63,0.00,,CLR,0.21,0.00,VWS V14.01,2013-04-24 01:54:00,
2013-04-23 20:59:00,36.0,25.4,30.02,WSW,237,2.0,3.0,65,0.00,,CLR,0.21,0.00,VWS V14.01,2013-04-24 01:59:00,
2013-04-23 21:04:00,35.6,25.0,30.01,West,261,2.0,4.0,65,0.00,,CLR,0.21,0.00,VWS V14.01,2013-04-24 02:04:00,
2013-04-23 21:09:00,35.5,24.9,30.01,West,270,0.0,4.0,65,0.00,,CLR,0.21,0.00,VWS V14.01,2013-04-24 02:09:00,
2013-04-23 21:14:00,35.5,24.5,30.01,West,269,0.0,4.0,64,0.00,,CLR,0.21,0.00,VWS V14.01,2013-04-24 02:14:00,
2013-04-23 21:19:00,35.7,24.4,30.02,West,269,1.0,4.0,63,0.00,,CLR,0.21,0.00,VWS V14.01,2013-04-24 02:19:00,
2013-04-23 21:24:00,35.8,24.5,30.02,West,269,1.0,4.0,63,0.00,,CLR,0.21,0.00,VWS V14.01,2013-04-24 02:24:00,
2013-04-23 21:29:00,35.8,24.5,30.02,West,269,2.0,2.0,63,0.00,,CLR,0.21,0.00,VWS V14.01,2013-04-24 02:29:00,
2013-04-23 21:35:00,35.7,24.4,30.02,West,269,0.0,3.0,63,0.00,,CLR,0.21,0.00,VWS V14.01,2013-04-24 02:35:00,
2013-04-23 21:40:00,35.4,24.5,30.02,West,269,3.0,3.0,64,0.00,,CLR,0.21,0.00,VWS V14.01,2013-04-24 02:40:00,
2013-04-23 21:45:00,34.9,25.1,30.02,West,269,2.0,4.0,67,0.00,,CLR,0.21,0.00,VWS V14.01,2013-04-24 02:45:00,
2013-04-23 21:50:00,34.8,25.0,30.02,West,269,1.0,4.0,67,0.00,,CLR,0.21,0.00,VWS V14.01,2013-04-24 02:50:00,
2013-04-23 21:55:00,34.8,25.0,30.02,West,261,4.0,5.0,67,0.00,,CLR,0.21,0.00,VWS V14.01,2013-04-24 02:55:00,
2013-04-23 22:00:00,34.8,25.0,30.02,West,261,0.0,3.0,67,0.00,,CLR,0.21,0.00,VWS V14.01,2013-04-24 03:00:00,
2013-04-23 22:05:00,34.7,25.2,30.02,West,261,3.0,5.0,68,0.00,,CLR,0.21,0.00,VWS V14.01,2013-04-24 03:05:00,
2013-04-23 22:10:00,34.7,25.2,30.02,West,261,2.0,5.0,68,0.00,,CLR,0.21,0.00,VWS V14.01,2013-04-24 03:10:00,
2013-04-23 22:15:00,34.6,25.1,30.03,West,261,2.0,5.0,68,0.00,,CLR,0.21,0.00,VWS V14.01,2013-04-24 03:15:00,
2013-04-23 22:20:00,34.4,25.3,30.02,West,261,2.0,5.0,69,0.00,,CLR,0.21,0.00,VWS V14.01,2013-04-24 03:20:00,
2013-04-23 22:25:00,34.2,25.1,30.02,West,261,2.0,5.0,69,0.00,,CLR,0.21,0.00,VWS V14.01,2013-04-24 03:25:00,
2013-04-23 22:31:00,34.0,24.9,30.02,WNW,291,1.0,3.0,69,0.00,,CLR,0.21,0.00,VWS V14.01,2013-04-24 03:31:00,
2013-04-23 22:36:00,33.8,24.7,30.02,WNW,291,2.0,4.0,69,0.00,,CLR,0.21,0.00,VWS V14.01,2013-04-24 03:36:00,
2013-04-23 22:41:00,33.8,25.1,30.02,WNW,291,1.0,4.0,70,0.00,,CLR,0.21,0.00,VWS V14.01,2013-04-24 03:41:00,
2013-04-23 22:46:00,33.7,25.0,30.02,WNW,291,3.0,4.0,70,0.00,,CLR,0.21,0.00,VWS V14.01,2013-04-24 03:46:00,
2013-04-23 22:51:00,33.5,24.8,30.02,WNW,291,2.0,4.0,70,0.00,,CLR,0.21,0.00,VWS V14.01,2013-04-24 03:51:00,
2013-04-23 22:56:00,33.4,25.0,30.02,WNW,291,3.0,4.0,71,0.00,,CLR,0.21,0.00,VWS V14.01,2013-04-24 03:56:00,
2013-04-23 23:01:00,33.2,24.8,30.02,WNW,302,2.0,5.0,71,0.00,,CLR,0.21,0.00,VWS V14.01,2013-04-24 04:01:00,
2013-04-23 23:06:00,33.0,25.0,30.01,WNW,302,1.0,5.0,72,0.00,,CLR,0.21,0.00,VWS V14.01,2013-04-24 04:06:00,
2013-04-23 23:11:00,32.9,24.9,30.01,NW,304,3.0,5.0,72,0.00,,CLR,0.21,0.00,VWS V14.01,2013-04-24 04:11:00,
2013-04-23 23:16:00,32.8,24.8,30.01,NW,304,2.0,5.0,72,0.00,,CLR,0.21,0.00,VWS V14.01,2013-04-24 04:16:00,
2013-04-23 23:21:00,32.6,24.9,30.01,NW,304,4.0,5.0,73,0.00,,CLR,0.21,0.00,VWS V14.01,2013-04-24 04:21:00,
2013-04-23 23:26:00,32.5,24.8,30.01,NW,304,3.0,5.0,73,0.00,,CLR,0.21,0.00,VWS V14.01,2013-04-24 04:26:00,
2013-04-23 23:31:00,32.5,25.1,30.01,NW,304,2.0,3.0,74,0.00,,CLR,0.21,0.00,VWS V14.01,2013-04-24 04:31:00,
2013-04-23 23:36:00,32.3,25.0,30.01,NW,304,0.0,4.0,74,0.00,,CLR,0.21,0.00,VWS V14.01,2013-04-24 04:36:00,
2013-04-23 23:42:00,32.2,24.9,30.02,NW,304,1.0,4.0,74,0.00,,CLR,0.21,0.00,VWS V14.01,2013-04-24 04:42:00,
2013-04-23 23:47:00,32.0,25.0,30.02,NW,304,2.0,4.0,75,0.00,,CLR,0.21,0.00,VWS V14.01,2013-04-24 04:47:00,
2013-04-23 23:52:00,31.9,25.2,30.02,NW,304,2.0,4.0,76,0.00,,CLR,0.21,0.00,VWS V14.01,2013-04-24 04:52:00,
2013-04-23 23:57:00,31.9,25.2,30.02,NW,304,1.0,4.0,76,0.00,,CLR,0.21,0.00,VWS V14.01,2013-04-24 04:57:00,